Temp
86 87 86 86 85 84 84 85 85 86 85 85 86 86 86 87 87 85 85 86 84 84 83 82 81 80 77 78 79 81 78 78 70 66 71 73 71 70 71 72 73 73 69
86 84 84 85 84 84 84 85 86 84 85 85 85 85 85 86 86 85 85 86 84 83 83 81 81 81 77 76 79 76 76 73 74 66 70 72 70 70 69 69 71 75 75
83 82 79 77 79 81 82 83 84 84 84 86 85 84 84 84 85 85 85 85 85 83 83 81 81 80 78 77 76 77 77 71 76 74 71 73 72 73 70 71 69 70 73
82 81 80 83 81 80 82 80 84 84 84 84 84 84 84 85 85 85 85 85 85 83 82 81 81 80 79 77 76 75 71 72 74 74 73 71 72 70 74 71 70 73 73
79 78 79 81 82 83 83 83 83 83 84 83 84 84 84 85 87 85 85 85 84 82 81 81 80 79 74 75 76 72 72 74 75 74 72 72 71 69 71 72 71 72 70
79 78 79 79 80 80 80 81 82 83 83 82 81 80 84 86 75 70 78 86 84 82 80 80 79 72 71 68 69 69 72 72 72 74 73 71 69 71 72 73 72 71 69
78 78 78 78 78 78 79 79 79 80 82 82 83 84 83 84 67 66 69 86 84 81 79 76 75 76 72 75 66 66 66 67 70 73 71 71 70 72 72 69 70 71 71
77 78 78 78 78 78 78 77 77 79 79 80 81 82 82 83 66 64 66 82 82 79 76 74 73 75 76 75 73 72 71 72 73 78 75 75 75 74 73 73 71 69 71
77 77 77 77 77 77 77 76 77 77 77 78 80 79 80 81 64 61 66 79 79 77 75 75 75 75 67 63 74 72 71 73 66 64 66 66 64 65 71 75 72 73 71
74 75 75 76 75 76 76 76 76 77 77 80 77 76 71 74 58 58 67 82 78 76 74 75 66 73 60 60 75 72 71 73 75 74 73 67 66 67 63 75 76 73 73
74 73 73 75 74 74 75 76 75 75 75 75 76 75 71 67 65 57 60 79 81 78 75 75 77 60 56 56 62 74 73 74 70 75 77 77 76 75 75 76 76 78 75
72 71 72 73 74 76 73 74 75 74 74 74 74 73 72 70 60 59 57 59 61 77 76 82 76 57 54 54 62 60 58 65 77 77 77 76 76 77 77 77 75 76 79
69 69 70 71 72 73 71 71 75 75 75 75 76 73 71 71 68 58 57 56 59 66 75 71 60 54 53 56 57 56 57 75 77 76 76 77 78 79 77 75 74 74 74
66 67 69 69 69 71 74 75 74 75 75 75 75 75 77 78 71 68 69 67 61 64 63 66 64 64 63 68 64 64 73 77 76 77 78 78 78 76 76 77 75 75 75
65 66 67 70 71 71 71 74 75 74 72 75 76 77 76 76 77 65 64 70 71 65 65 67 67 66 71 72 72 70 68 73 74 77 77 76 76 76 76 77 77 76 75
64 67 69 70 70 71 71 71 63 58 53 51 50 57 72 58 49 48 48 50 51 52 67 67 64 65 68 71 71 67 66 66 75 77 77 77 76 76 76 76 77 76 75
64 66 67 65 68 68 69 70 70 68 52 50 47 47 46 49 46 44 44 45 46 50 65 70 69 67 66 65 70 73 66 67 71 76 77 77 77 77 74 75 76 76 76
64 59 65 66 68 68 68 69 71 71 71 72 55 49 45 44 43 43 43 44 54 52 66 69 71 74 73 69 67 72 70 68 68 74 77 78 78 77 76 76 76 75 76
64 65 66 66 66 66 68 69 70 70 69 65 63 53 50 43 42 42 42 52 59 60 62 69 70 75 75 74 73 74 73 69 70 73 76 77 78 78 77 78 78 65 69
63 61 60 64 64 64 67 67 68 69 70 69 67 68 71 54 57 59 54 55 59 64 65 66 70 73 74 74 73 74 73 73 73 73 75 76 76 76 77 78 78 77 76
63 63 61 61 60 62 65 66 67 66 68 70 70 70 55 66 66 61 59 55 59 64 68 69 71 72 73 73 74 72 73 74 74 75 74 73 75 74 73 70 75 76 71
63 59 57 56 57 57 61 64 66 66 67 65 68 68 46 58 62 59 59 60 61 64 68 69 71 71 72 69 69 68 68 73 71 73 72 73 73 75 74 66 64 63 64
55 56 57 56 56 57 61 62 62 64 63 64 66 66 64 61 60 59 59 59 59 60 61 68 66 69 69 66 65 63 63 64 68 69 68 66 64 63 67 70 70 69 66
57 59 57 57 58 57 57 57 59 55 62 63 65 64 62 62 58 59 58 57 57 56 58 58 61 67 57 58 59 59 59 61 62 63 63 65 62 55 59 59 58 55 56
58 57 56 56 56 56 57 57 59 60 61 61 59 58 58 57 57 55 56 56 55 54 53 54 54 55 53 53 53 56 46 38 54 48 62 60 55 59 57 56 56 56 57
55 54 53 54 54 54 55 55 56 59 57 55 55 55 53 54 55 54 55 54 53 52 51 51 50 51 55 50 49 40 37 37 47 44 57 55 56 60 61 60 60 62 62
MSLP
1011.06 1011.39 1011.82 1012.19 1012.55 1012.81 1012.77 1012.71 1012.86 1012.96 1012.93 1013.05 1013.07 1013.02 1013.07 1013.16 1013.34 1013.44 1013.46 1013.42 1013.43 1013.52 1013.79 1013.82 1013.81 1013.94 1014.10 1014.19 1014.18 1014.11 1014.23 1014.53 1015.01 1016.01 1016.12 1016.25 1016.27 1016.35 1016.28 1016.06 1016.04 1015.91 1016.24
1010.70 1011.38 1011.70 1011.61 1011.90 1011.95 1012.20 1012.38 1012.42 1012.52 1012.58 1012.53 1012.51 1012.52 1012.62 1012.67 1012.79 1013.01 1013.15 1013.12 1013.20 1013.23 1013.24 1013.46 1013.47 1013.66 1013.76 1013.97 1013.74 1013.92 1014.23 1014.72 1014.72 1015.45 1015.99 1016.10 1016.34 1016.51 1016.56 1016.67 1016.33 1016.27 1016.20
1010.95 1011.50 1011.53 1011.36 1011.39 1011.78 1011.94 1012.11 1012.16 1012.12 1012.00 1011.97 1011.97 1012.00 1011.88 1012.10 1012.32 1012.59 1012.71 1012.79 1012.91 1012.96 1013.04 1013.17 1013.11 1013.12 1013.14 1013.42 1013.73 1013.73 1013.92 1014.67 1014.71 1014.76 1015.44 1016.08 1016.52 1016.54 1016.84 1016.77 1016.83 1016.89 1016.83
1011.21 1011.60 1011.67 1011.64 1011.63 1011.83 1011.68 1011.88 1011.67 1011.64 1011.63 1011.51 1011.35 1011.35 1011.49 1011.60 1011.79 1011.91 1012.03 1012.22 1012.36 1012.53 1012.61 1012.59 1012.55 1012.55 1012.58 1012.96 1013.28 1013.60 1014.16 1014.50 1014.73 1014.81 1015.20 1015.82 1016.03 1016.60 1016.60 1016.46 1016.69 1016.80 1016.78
1011.89 1012.40 1012.45 1012.20 1012.00 1011.97 1011.90 1011.60 1011.34 1011.04 1011.04 1011.08 1010.90 1010.90 1011.09 1011.21 1011.26 1011.30 1011.48 1011.63 1011.74 1011.99 1012.02 1012.00 1012.01 1012.15 1012.38 1012.63 1013.09 1013.58 1013.79 1014.02 1014.34 1014.63 1014.93 1015.46 1015.82 1016.20 1016.04 1016.46 1016.31 1016.54 1017.25
1012.56 1012.74 1012.97 1012.89 1012.75 1012.48 1012.30 1011.82 1011.56 1011.09 1010.75 1010.74 1010.61 1010.73 1010.41 1010.41 1010.43 1011.06 1011.00 1011.02 1011.23 1011.17 1011.14 1011.21 1011.59 1012.41 1012.84 1012.86 1013.03 1013.47 1013.62 1013.62 1013.90 1014.21 1014.49 1014.96 1015.42 1015.72 1015.99 1016.20 1016.14 1016.09 1016.45
1013.30 1013.24 1013.18 1013.00 1012.79 1012.56 1012.29 1012.03 1011.91 1011.28 1010.74 1010.42 1010.28 1010.14 1010.00 1010.04 1010.10 1010.20 1010.68 1010.58 1010.29 1010.21 1010.11 1010.55 1011.69 1011.65 1012.28 1012.91 1013.22 1013.28 1013.64 1013.82 1013.77 1014.06 1014.39 1014.71 1015.19 1015.41 1015.68 1016.20 1016.24 1016.10 1016.37
1013.66 1013.50 1013.30 1012.97 1012.64 1012.47 1012.27 1012.09 1011.98 1011.59 1010.93 1010.48 1010.24 1010.00 1009.79 1009.57 1009.54 1009.79 1009.85 1009.98 1009.63 1009.28 1009.71 1010.16 1010.19 1010.51 1011.20 1012.27 1012.96 1013.03 1013.35 1013.77 1013.95 1013.97 1014.33 1014.61 1015.14 1015.34 1015.66 1015.86 1016.18 1016.48 1016.91
1013.52 1013.36 1013.09 1012.89 1012.59 1012.44 1012.38 1012.13 1011.75 1011.33 1010.86 1010.38 1010.21 1010.07 1009.80 1009.34 1009.37 1009.47 1009.44 1009.16 1008.98 1008.84 1009.21 1009.37 1010.03 1009.82 1010.84 1012.20 1012.61 1012.94 1013.20 1013.44 1014.01 1014.35 1014.70 1014.93 1015.18 1015.63 1015.36 1015.69 1015.88 1015.59 1016.03
1013.59 1013.34 1013.29 1013.14 1012.88 1012.58 1012.25 1012.01 1011.79 1011.30 1010.69 1010.21 1009.88 1010.05 1009.87 1009.62 1009.52 1009.42 1009.46 1008.32 1007.96 1008.19 1008.79 1009.44 1010.42 1009.92 1010.68 1011.78 1012.09 1012.75 1012.92 1013.08 1013.42 1014.18 1014.96 1015.32 1015.37 1015.70 1015.96 1015.48 1015.45 1015.14 1015.53
1013.94 1013.72 1013.46 1013.13 1012.83 1012.44 1012.02 1011.71 1011.48 1011.01 1010.53 1010.01 1009.76 1009.71 1009.84 1009.88 1009.63 1009.35 1009.12 1008.35 1007.50 1007.67 1008.23 1009.11 1009.48 1009.95 1010.44 1011.31 1011.89 1012.45 1012.60 1012.96 1013.35 1013.75 1013.90 1014.33 1014.62 1014.96 1015.28 1015.34 1015.37 1015.07 1015.22
1014.00 1013.63 1013.26 1012.94 1012.55 1012.05 1011.87 1011.49 1010.99 1010.54 1009.98 1009.67 1009.50 1009.33 1009.48 1009.44 1009.44 1009.37 1009.31 1008.99 1009.01 1008.43 1008.36 1008.41 1009.06 1009.49 1010.08 1011.05 1011.86 1012.09 1012.51 1013.16 1012.96 1013.10 1013.30 1013.50 1013.79 1014.12 1014.48 1014.77 1015.23 1015.41 1015.50
1013.53 1013.07 1012.71 1012.37 1011.94 1011.64 1011.26 1010.73 1010.28 1009.87 1009.48 1009.18 1008.94 1008.91 1008.88 1008.79 1008.90 1009.11 1009.12 1009.05 1008.93 1009.08 1008.52 1008.35 1008.93 1009.58 1010.25 1011.05 1011.46 1011.88 1012.38 1012.33 1012.52 1012.55 1012.70 1012.79 1013.20 1013.55 1014.08 1014.86 1015.23 1015.76 1015.79
1012.71 1012.23 1011.80 1011.37 1010.94 1010.53 1010.04 1009.69 1009.44 1009.09 1008.87 1008.73 1008.48 1008.19 1008.00 1007.84 1008.42 1008.63 1008.59 1008.78 1008.78 1008.64 1008.54 1008.54 1009.03 1009.67 1010.28 1010.49 1011.25 1011.89 1011.77 1011.91 1011.94 1011.96 1012.32 1012.68 1013.18 1013.78 1013.86 1014.26 1014.49 1015.05 1015.21
1012.02 1011.56 1010.97 1010.43 1009.96 1009.64 1009.31 1008.82 1008.49 1008.28 1008.36 1008.30 1008.08 1007.86 1007.55 1007.34 1007.32 1007.74 1008.28 1008.18 1008.01 1007.94 1008.24 1008.84 1009.05 1009.37 1009.60 1010.12 1010.46 1011.09 1011.65 1011.57 1011.82 1011.80 1012.09 1012.53 1012.85 1013.16 1013.48 1013.95 1014.12 1014.44 1014.55
1011.25 1010.73 1010.22 1009.85 1009.40 1008.91 1008.47 1007.96 1007.61 1007.67 1007.72 1008.08 1008.20 1008.41 1007.67 1007.69 1007.99 1008.31 1008.34 1008.17 1008.18 1008.24 1008.29 1008.42 1008.70 1008.78 1008.97 1009.03 1009.49 1010.38 1011.04 1011.34 1011.19 1011.32 1011.76 1011.89 1012.34 1012.64 1012.95 1013.65 1013.78 1013.87 1014.04
1010.67 1010.11 1009.65 1009.36 1008.77 1008.41 1007.86 1007.36 1006.76 1006.33 1006.72 1007.14 1007.47 1007.71 1007.97 1007.89 1008.01 1008.09 1008.21 1008.13 1008.06 1008.25 1007.95 1007.54 1007.71 1008.05 1008.26 1008.63 1008.75 1009.41 1010.13 1010.86 1010.96 1010.89 1011.19 1011.39 1011.68 1012.22 1012.70 1013.08 1013.47 1013.45 1013.65
1009.85 1009.45 1009.14 1008.61 1008.13 1007.74 1007.29 1006.59 1006.39 1005.84 1005.67 1005.82 1006.07 1007.06 1007.33 1007.41 1007.59 1007.51 1007.75 1008.10 1007.85 1007.83 1007.04 1006.57 1006.69 1006.58 1007.00 1007.51 1007.99 1008.56 1009.25 1009.92 1010.45 1010.34 1010.50 1010.95 1011.07 1011.36 1011.90 1012.04 1012.70 1013.03 1013.16
1008.97 1008.50 1008.10 1007.80 1007.42 1007.00 1006.69 1006.15 1005.69 1005.40 1005.13 1005.38 1005.79 1006.37 1006.78 1007.05 1006.98 1006.99 1007.28 1007.23 1006.48 1006.15 1005.98 1005.56 1005.60 1005.66 1005.86 1006.31 1006.83 1007.45 1008.06 1008.86 1009.47 1009.64 1009.96 1010.30 1010.68 1010.91 1011.06 1011.32 1011.75 1012.45 1012.78
1007.84 1007.69 1007.65 1007.18 1006.70 1006.39 1005.88 1005.35 1004.90 1004.58 1004.26 1004.27 1004.62 1004.96 1004.94 1006.46 1006.32 1006.09 1006.10 1005.96 1005.29 1004.70 1004.57 1004.54 1004.54 1004.58 1004.93 1005.45 1005.89 1006.51 1007.36 1007.96 1008.56 1009.05 1009.39 1009.85 1010.25 1010.65 1010.72 1010.83 1011.22 1011.70 1012.46
1006.83 1006.70 1006.70 1006.52 1006.10 1005.63 1005.03 1004.46 1004.14 1003.97 1003.58 1003.36 1003.36 1003.78 1004.18 1004.80 1004.59 1004.76 1004.67 1004.64 1004.24 1003.64 1003.43 1003.44 1003.47 1003.87 1004.39 1004.91 1005.33 1005.94 1006.74 1007.35 1007.89 1008.34 1008.90 1009.46 1009.68 1010.10 1010.75 1011.31 1011.34 1011.83 1012.60
1005.98 1005.91 1005.74 1005.44 1005.13 1004.80 1004.31 1003.93 1003.52 1003.24 1002.95 1002.90 1002.95 1002.96 1003.49 1004.21 1004.04 1003.84 1003.59 1003.42 1003.14 1002.80 1002.70 1002.78 1002.94 1003.45 1003.91 1004.68 1005.40 1005.99 1006.71 1007.20 1007.93 1008.43 1009.01 1009.30 1009.65 1009.90 1010.48 1011.48 1012.03 1012.62 1013.00
1005.41 1005.05 1004.53 1004.46 1004.27 1003.99 1003.66 1003.40 1003.17 1002.84 1002.66 1002.60 1002.62 1002.75 1003.17 1003.36 1003.33 1003.17 1002.94 1002.76 1002.76 1002.71 1002.58 1002.91 1003.19 1003.73 1004.38 1005.28 1005.70 1006.25 1006.95 1007.68 1008.29 1008.69 1009.33 1009.92 1010.47 1011.10 1011.07 1011.42 1011.91 1012.38 1013.23
1004.52 1004.22 1004.04 1003.80 1003.55 1003.37 1003.21 1002.87 1002.63 1002.48 1002.25 1002.11 1001.99 1002.02 1002.40 1002.56 1002.87 1002.93 1002.74 1002.76 1002.83 1002.91 1002.90 1003.14 1003.50 1003.78 1004.87 1005.63 1006.14 1006.71 1007.46 1008.11 1008.78 1009.18 1009.46 1009.99 1010.83 1011.47 1011.90 1012.37 1012.88 1013.13 1013.59
1004.17 1003.91 1003.64 1003.42 1003.08 1002.84 1002.47 1002.25 1001.95 1001.68 1001.56 1001.41 1001.58 1001.84 1002.10 1002.36 1002.47 1002.79 1002.82 1003.06 1003.16 1003.17 1003.49 1003.63 1004.30 1004.58 1005.04 1005.64 1006.42 1007.42 1008.29 1008.80 1009.25 1010.20 1009.76 1010.77 1011.55 1011.83 1011.84 1012.45 1013.31 1013.78 1013.97
1004.67 1004.35 1004.06 1003.76 1003.46 1003.03 1002.58 1002.13 1001.65 1001.19 1001.15 1001.13 1001.23 1001.54 1001.88 1002.36 1002.63 1002.59 1003.21 1003.36 1003.62 1003.99 1004.23 1004.05 1004.89 1005.24 1005.50 1006.22 1007.08 1008.14 1008.45 1008.86 1009.63 1010.58 1010.66 1011.70 1012.13 1012.26 1012.08 1012.73 1013.18 1013.39 1013.93
Wind_Speed
11 10 11 9 10 10 11 12 12 12 11 10 11 10 10 9 7 7 7 6 6 5 4 4 3 2 2 2 3 2 3 2 2 2 3 4 6 6 7 6 6 7 8
8 7 7 9 9 10 10 11 10 11 11 11 11 10 11 10 8 8 9 7 7 6 6 5 4 3 2 4 3 3 2 3 3 6 4 4 5 6 6 7 6 6 7
3 2 5 5 4 7 8 9 9 10 10 11 10 11 11 11 10 9 9 8 7 7 6 6 5 5 4 4 4 4 4 2 4 5 6 4 4 4 6 6 6 6 7
9 7 2 2 3 5 6 6 7 8 9 9 10 11 11 10 10 9 9 9 8 6 7 7 7 7 6 6 6 5 6 5 6 5 6 5 5 5 2 4 5 3 5
14 12 11 9 7 5 4 4 6 6 7 8 9 9 9 9 9 11 10 10 9 8 9 9 9 8 5 7 6 7 9 6 6 6 6 5 5 5 4 3 4 5 5
12 12 10 9 9 8 7 8 7 5 4 6 7 8 9 8 9 11 12 10 10 11 11 11 8 6 5 7 7 8 10 10 8 6 5 6 6 5 5 4 4 5 4
8 7 6 6 7 7 8 8 9 8 7 7 7 8 11 12 10 13 13 12 12 13 14 9 5 6 8 8 8 10 8 6 6 8 7 7 7 7 6 6 4 3 4
5 5 5 6 7 7 7 7 8 8 9 9 10 10 11 10 10 14 14 14 13 14 10 12 12 12 11 10 10 11 10 10 9 7 6 6 5 8 7 5 5 6 6
8 8 7 7 7 7 8 9 8 9 9 9 10 12 12 13 9 12 14 13 14 13 11 15 13 12 14 10 11 11 10 9 6 1 4 4 7 6 7 7 6 5 6
10 10 10 9 9 9 8 7 6 7 9 9 11 10 12 13 4 13 15 12 14 10 11 9 9 12 15 16 12 11 11 10 9 9 8 6 8 7 8 6 6 4 5
11 10 10 10 10 11 11 8 8 8 7 8 11 10 10 7 6 14 17 15 13 11 8 8 10 12 15 16 10 12 10 10 8 8 7 7 8 9 8 7 5 4 5
12 11 11 11 10 9 11 11 11 9 9 9 10 10 9 9 9 11 13 11 11 9 8 7 7 16 16 15 12 10 11 9 8 7 7 8 8 8 8 8 6 4 0
13 13 12 12 11 11 11 11 10 10 9 10 10 9 9 7 6 12 12 8 5 5 5 2 8 14 14 12 9 13 13 8 8 8 8 8 8 7 8 7 6 5 5
15 14 12 12 12 12 10 9 10 10 10 11 11 11 11 9 7 6 7 6 6 4 3 5 7 9 10 9 11 9 9 8 8 8 7 6 7 7 8 7 6 7 6
15 15 15 13 14 12 11 11 11 11 11 11 11 11 11 11 9 4 6 6 5 3 5 4 6 7 10 9 9 9 7 7 8 7 8 8 8 8 7 7 6 7 7
16 13 12 12 12 12 11 12 13 17 10 11 13 10 11 10 6 4 6 8 6 11 5 4 4 6 10 11 11 9 7 7 9 9 9 9 9 9 9 8 7 8 7
16 16 13 12 12 11 11 11 12 11 12 12 14 14 13 16 11 11 8 8 8 9 7 9 9 9 9 8 10 11 9 8 8 9 10 10 10 9 9 9 9 8 8
17 16 13 12 12 12 12 12 11 11 10 9 9 12 13 13 12 13 8 4 4 4 8 8 10 11 12 11 9 11 10 8 8 10 10 10 10 10 10 10 10 10 9
15 13 12 12 12 12 12 12 11 12 10 7 5 4 10 11 9 11 7 8 9 9 12 12 10 11 12 12 12 12 13 10 10 11 11 11 10 9 10 10 11 10 9
13 18 16 13 12 12 12 12 12 12 11 9 8 9 9 4 5 7 6 8 10 10 10 11 10 11 11 12 11 12 11 12 12 11 11 10 9 8 9 10 11 11 11
11 11 16 11 10 11 12 13 12 11 11 11 11 10 10 9 9 7 6 7 9 9 9 10 10 11 10 11 11 10 11 11 11 11 10 9 9 8 7 4 5 7 8
11 10 9 10 9 10 11 11 11 11 10 9 9 10 9 8 9 7 7 7 5 7 7 8 8 8 8 8 10 8 9 11 10 9 8 7 6 7 8 8 7 6 6
9 11 9 7 8 10 11 10 10 10 8 8 10 9 6 8 7 6 7 5 3 3 3 6 7 9 8 8 7 8 8 8 8 9 9 8 7 6 4 6 7 8 7
8 8 8 8 7 7 7 7 7 8 10 9 11 8 8 7 6 7 4 2 3 3 3 5 7 13 11 9 8 8 8 8 6 8 11 9 9 7 7 7 5 7 6
5 5 5 5 4 5 6 8 9 9 9 8 6 6 6 5 6 5 4 3 4 4 6 7 6 14 15 15 14 15 14 12 10 6 7 9 7 11 8 7 6 4 5
5 5 4 5 5 6 7 7 7 8 5 5 4 5 5 4 5 5 4 5 6 7 8 6 10 12 18 13 14 13 13 15 11 11 8 6 6 6 7 8 9 6 6
Wind_Direction
221 221 226 235 243 246 245 247 250 255 247 248 249 246 249 257 259 245 250 264 262 270 239 248 258 242 281 224 240 217 211 211 136 114 126 103 70 61 59 65 63 69 77
224 220 229 239 244 245 252 258 256 257 261 254 249 243 249 249 248 238 247 255 264 268 245 227 249 219 225 207 217 189 154 183 150 153 145 130 83 86 74 72 58 64 81
244 199 237 271 233 268 267 270 270 264 259 260 253 249 243 243 242 234 240 256 258 255 246 231 238 223 213 201 200 190 150 152 185 161 136 142 119 113 103 84 72 81 86
91 96 80 336 300 278 292 274 269 267 269 264 254 252 249 243 241 231 230 245 250 238 228 224 225 220 220 202 192 176 138 159 138 149 143 147 147 120 119 130 124 94 101
65 62 51 44 41 32 344 300 265 253 261 265 264 258 255 251 244 227 232 241 244 233 219 219 220 221 215 195 180 177 157 163 167 164 158 169 158 161 169 144 129 123 104
55 57 53 48 38 31 16 4 354 349 309 272 260 257 257 244 219 221 232 234 230 228 224 219 215 207 197 174 177 176 175 168 177 182 170 178 170 169 152 166 149 150 136
52 48 42 39 32 19 10 6 352 348 346 327 294 275 264 255 212 209 210 233 221 219 223 210 188 177 180 188 164 164 170 176 188 181 180 183 179 170 154 167 152 121 102
30 22 16 12 11 3 356 354 340 339 340 332 318 301 279 266 214 207 196 219 224 220 205 196 188 185 182 183 172 174 176 187 187 195 187 168 190 166 168 162 150 112 122
352 344 342 338 334 332 325 330 334 332 334 332 323 310 291 279 239 202 185 209 221 223 200 204 203 173 158 175 183 178 174 184 160 157 64 116 123 176 161 159 168 162 141
333 327 318 309 297 288 287 294 299 309 317 323 318 310 304 295 186 196 203 214 214 211 213 219 192 175 150 173 188 180 182 176 176 179 190 172 166 184 181 217 175 165 141
308 305 302 299 295 291 291 283 281 290 301 310 307 303 296 286 262 223 214 229 228 213 202 203 187 162 161 173 189 186 194 171 169 188 194 186 178 170 195 199 208 209 171
288 284 282 282 282 286 281 278 274 279 291 298 299 295 293 281 235 237 250 258 351 279 245 248 199 165 165 164 182 147 137 178 179 192 199 189 186 181 187 186 182 219 74
282 274 274 277 276 271 272 276 276 273 279 283 287 287 285 275 253 230 249 280 322 293 289 253 150 175 162 167 172 145 161 190 192 192 203 195 189 177 160 173 163 186 202
289 283 277 275 274 277 276 270 268 267 270 273 274 277 283 276 267 247 246 234 215 204 168 146 154 181 180 179 151 165 191 197 193 197 197 181 164 167 177 178 179 178 205
286 285 283 281 277 275 268 272 268 259 259 270 270 272 281 280 283 241 240 252 252 144 100 149 158 170 175 186 179 182 189 195 196 196 190 176 181 177 179 181 187 181 209
289 285 282 286 282 279 277 276 241 239 235 236 252 254 271 284 312 293 245 242 230 163 205 197 194 179 191 187 183 177 176 192 201 190 195 185 183 186 178 186 191 196 195
280 284 284 275 273 274 274 275 275 257 223 241 236 235 232 259 295 293 285 267 229 187 223 226 216 196 191 185 190 193 184 189 201 193 194 189 185 191 180 190 201 201 204
277 270 273 271 271 272 270 273 275 271 270 275 235 226 233 237 250 264 259 193 241 223 230 225 213 218 203 193 185 198 187 175 188 198 194 193 188 183 184 184 195 204 207
273 275 277 274 269 269 272 270 265 270 269 258 259 216 226 233 237 256 226 231 225 211 213 216 212 221 212 197 187 195 190 175 186 194 195 196 198 202 204 204 197 201 200
271 264 263 273 274 269 265 261 263 262 267 260 251 251 261 181 234 241 217 230 224 218 213 215 216 216 206 196 184 182 186 181 186 192 195 197 190 204 216 201 205 189 196
277 273 262 263 261 262 261 257 255 261 266 270 259 252 239 238 259 245 231 219 229 215 214 207 200 197 192 189 181 174 179 183 184 186 182 186 181 181 191 199 207 186 183
278 272 261 251 251 254 258 259 256 257 262 264 265 262 180 225 248 239 231 225 246 217 204 196 182 175 176 158 164 156 165 170 174 175 169 163 165 169 160 152 146 146 152
266 267 256 248 248 251 258 260 261 261 255 253 254 253 229 231 234 229 230 213 178 211 153 176 151 155 134 137 134 135 141 148 161 159 148 145 140 138 143 153 158 153 155
268 270 261 257 270 262 252 251 243 241 252 244 249 240 229 224 217 220 200 159 112 113 99 130 142 138 114 103 95 89 94 116 122 127 130 137 128 126 123 119 123 126 117
314 317 301 288 278 265 261 254 248 244 242 243 229 208 205 182 186 180 153 140 107 79 101 100 116 126 118 113 108 108 102 89 94 89 113 113 134 144 124 116 129 130 149
359 357 349 338 327 318 302 289 270 254 232 203 176 167 156 169 167 128 142 125 113 102 99 98 95 105 108 105 101 101 109 112 112 115 105 122 138 143 135 145 162 161 173